Home > Weather > Bayreuth > Past weeks

Flag for Germany Weather for the Past 2 Weeks in Bayreuth, Bavaria, Germany

Now
34 °F

Fog.


Feels Like: 31 °F
Forecast: 37 / 43 °F
Wind: 3 mph from East

Location: Grafenwoehr

Current Time: Feb 13, 2016 at 5:18:04 PM

Latest Report: Feb 13, 2016 at 5:02 PM


Visibility: 2 mi

Pressure: 29.23 "Hg

Humidity: 93%

Dew point: 32 °F

Location of BayreuthLocation

Historic Weather in Bayreuth — Graph

°F

Bayreuth Temperature Yesterday

Maximum temperature yesterday: 43 °F (at 3:01 PM)
Minimum temperature yesterday: 26 °F (at 11:58 PM)
Average temperature yesterday: 33 °F

High & Low Weather Summary for the Past Weeks

 TemperatureHumidityPressure
High52 °F (Feb 1, 11:58 AM)100% (Feb 1, 12:58 AM)30.41 "Hg (Feb 1, 12:58 AM)
Low25 °F (Feb 13, 1:58 AM)54% (Feb 8, 11:58 AM)29.18 "Hg (Feb 9, 7:58 PM)
Average39 °F85%29.87 "Hg
* Reported Jan 29 3:58 PM — Feb 13 3:58 PM, Bayreuth, Weather by CustomWeather, © 2016

Note: Actual official high and low records may vary slightly from our data, if they occured in-between our weather recording intervals... More about our weather records

Advertising

Bayreuth Weather History for the Previous 24 Hours

 ConditionsComfort  
Time TempWeatherWind HumidityBarometerVisibility
3:58 PM
Sat, Feb 13
34 °FFog.5 mph93%29.34 "Hg4 mi
2:58 PM34 °FFog.5 mph91%29.35 "Hg6 mi
1:58 PM34 °FFog.5 mph93%29.35 "Hg6 mi
12:58 PM34 °FLow clouds.2 mph87%29.38 "HgN/A
11:58 AM33 °FLow clouds.3 mph87%29.41 "HgN/A
10:58 AM32 °FOvercast.3 mph87%29.41 "HgN/A
9:58 AM32 °FOvercast.3 mph87%29.42 "HgN/A
8:58 AM31 °FOvercast.3 mph87%29.43 "HgN/A
7:58 AM30 °FMore clouds than sun.5 mph86%29.43 "HgN/A
6:58 AM30 °FMostly cloudy.3 mph87%29.43 "HgN/A
6:00 AM30 °FMostly cloudy.5 mph86%29.36 "HgN/A
4:58 AM29 °FOvercast.5 mph90%29.42 "HgN/A
3:58 AM29 °FPassing clouds.5 mph90%29.42 "HgN/A
2:58 AM27 °FClear.6 mph93%29.42 "HgN/A
1:58 AM25 °FClear.3 mph94%29.42 "HgN/A
12:58 AM26 °FClear.3 mph95%29.43 "HgN/A
11:58 PM
Fri, Feb 12
26 °FClear.3 mph94%29.44 "HgN/A
10:58 PM28 °FClear.2 mph91%29.46 "HgN/A
9:58 PM27 °FPassing clouds.No wind94%29.47 "HgN/A
8:58 PM28 °FPassing clouds.No wind93%29.48 "HgN/A
7:58 PM30 °FPassing clouds.1 mph90%29.48 "HgN/A
6:58 PM32 °FClear.3 mph85%29.50 "HgN/A
5:58 PM34 °FClear.No wind81%29.50 "HgN/A
Weather by CustomWeather, © 2016

See weather overviewHow to use our weather pages